#timestamp,LO_Frequency,Hit,StdDev 
1506081615.0,286046998.5,N
1506081615.9,286046998.5,N
1506081635.7,286046998.1,N
1506081655.6,286046999.8,N
1506081675.4,286047002.7,N
1506081695.2,286047000.6,N
1506081715.1,286046997.1,N
1506081716.0,286046997.1,N
1506081735.8,286047001.0,N
1506081755.6,286046999.6,N
1506081775.5,286047000.1,N
1506081795.3,286047005.5,N
1506081815.1,286047005.6,N
1506081835.9,286047001.7,N
1506081855.7,286047000.4,N
1506081875.5,286046999.0,N
1506081895.3,286047000.8,N
1506081915.2,286046999.7,N
1506081935.0,286047005.8,N
1506081935.9,286047005.8,N
1506081955.7,286047005.8,N
1506081975.6,286047004.3,N
1506081995.4,286047002.9,N
1506082015.2,286047003.5,N
1506082035.1,286046999.7,N
1506082036.0,286046999.7,N
1506082055.8,286046999.9,N
1506082075.6,286046997.2,N
1506082095.5,286047000.7,N
1506082115.3,286047000.4,N
1506082135.1,286047000.4,N
1506082155.9,286046999.7,N
1506082175.7,286047002.8,N
1506082195.5,286047003.9,N
1506082215.4,286047004.9,N
1506082235.2,286047004.3,N
1506082255.0,286047002.8,N
1506082255.9,286047002.8,N
1506082275.8,286047000.4,N
1506082295.6,286046998.6,N
1506082315.4,286047000.8,N
1506082335.3,286046999.4,N
1506082355.1,286046998.7,N
1506082356.0,286046998.7,N
1506082375.8,286046999.1,N
1506082395.7,286047001.2,N
1506082415.5,286047000.4,N
1506082435.3,286046999.4,N
1506082455.1,286046993.5,N
1506082475.9,286046997.6,N
1506082495.7,286046997.4,N
1506082515.5,286046993.8,N
1506082535.4,286046992.0,Y
1506082555.2,286046996.2,P
1506082575.1,286046994.5,N
1506082576.0,286046994.5,N
1506082595.8,286046991.0,Y
1506082615.6,286046995.5,P
1506082635.5,286046995.6,P
1506082655.3,286046991.7,P
1506082675.1,286046994.1,Y
1506082695.9,286047001.7,P
1506082715.7,286047003.8,N
1506082735.5,286047004.9,N
1506082755.4,286047004.9,N
1506082775.2,286047009.1,N
1506082795.0,286047006.0,N
1506082795.9,286047006.0,N
1506082815.8,286047001.0,N
1506082835.6,286047000.5,N
1506082855.4,286047005.0,N
1506082875.2,286047010.2,N
1506082895.1,286047007.5,N
1506082896.0,286047007.5,N
1506082915.8,286047005.6,N
1506082935.6,286047004.1,N
1506082955.5,286047002.8,N
1506082975.3,286047004.0,N
1506082995.2,286047005.6,N
1506083015.0,286047005.1,N
1506083015.9,286047005.1,N
1506083035.7,286047004.6,N
1506083055.6,286047003.6,N
1506083075.4,286047005.5,N
1506083095.2,286047001.8,N
1506083115.1,286047003.7,N
1506083116.0,286047003.7,N
1506083135.8,286047001.6,N
1506083155.6,286047001.7,N
1506083175.5,286047003.4,N
1506083195.3,286047004.5,N
1506083215.1,286047003.1,N
1506083235.9,286047001.4,N
1506083255.7,286047001.4,N
1506083275.5,286047004.1,N
1506083295.4,286047001.4,N
1506083315.2,286047001.8,N
1506083335.0,286047004.4,N
1506083335.9,286047004.4,N
1506083355.7,286047004.7,N
1506083375.6,286047008.5,Y
1506083395.4,286047001.5,P
1506083415.2,286046997.6,N
1506083435.1,286046996.3,N
1506083436.0,286046996.3,N
1506083455.8,286046993.6,N
1506083475.6,286046995.0,N
1506083495.5,286046999.1,N
1506083515.3,286046997.2,N
1506083535.1,286046997.7,N
1506083555.9,286046996.9,N
1506083575.7,286046996.9,N
1506083595.5,286046996.1,N
1506083615.4,286047000.8,N
1506083635.2,286047001.0,N
1506083655.0,286046999.8,N
1506083655.9,286046999.8,N
1506083675.8,286046999.4,N
1506083695.6,286046997.4,N
1506083715.4,286046993.4,N
1506083735.3,286046994.8,N
1506083755.1,286046996.8,N
1506083756.0,286046996.8,N
1506083775.8,286047001.3,N
1506083795.6,286047005.9,N
1506083815.5,286047003.1,N
1506083835.3,286047007.5,N
1506083855.1,286047003.1,N
1506083875.9,286047002.0,N
1506083895.7,286047002.3,N
1506083915.5,286046999.7,N
1506083935.4,286047003.5,N
1506083955.2,286047001.8,N
1506083975.0,286047001.9,N
1506083975.9,286047001.9,N
1506083995.8,286047004.1,N
1506084015.6,286047003.3,N
1506084035.4,286047003.0,N
1506084055.3,286046998.2,N
1506084075.1,286047000.2,N
1506084076.0,286047000.2,N
1506084095.8,286047003.6,N
1506084115.7,286046999.8,N
1506084135.5,286047001.9,N
1506084155.3,286047003.7,N
1506084175.2,286047003.0,N
1506084195.9,286047005.0,N
1506084215.7,286047005.9,N
1506084235.5,286047004.1,N
1506084255.4,286046999.7,N
1506084275.2,286046997.0,N
1506084295.0,286047002.2,N
1506084295.9,286047002.2,N
1506084315.8,286046996.6,N
1506084335.6,286046998.6,N
1506084355.4,286047000.6,N
1506084375.3,286047000.5,N
1506084395.1,286047002.1,N
1506084396.0,286047002.1,N
1506084415.8,286046998.6,N
1506084435.7,286046997.5,N
1506084455.5,286046994.9,N
1506084475.3,286047000.8,N
1506084495.2,286046999.8,N
1506084515.9,286047002.6,N
1506084535.7,286047000.3,N
1506084555.6,286047005.8,N
1506084575.4,286047003.9,N
1506084595.2,286047004.2,N
1506084615.0,286047004.3,N
1506084615.9,286047004.3,N
1506084635.8,286047002.7,N
1506084655.6,286047000.9,N
1506084675.4,286047001.5,N
1506084695.3,286047001.5,N
1506084715.1,286047004.7,N
1506084735.8,286047007.4,N
1506084755.7,286047007.2,N
1506084775.5,286047006.3,N
1506084795.3,286047006.1,N
1506084815.2,286047008.6,N
1506084835.9,286047005.5,N
1506084855.7,286047004.9,N
1506084875.6,286047003.1,N
1506084895.4,286047003.8,N
1506084915.2,286047001.6,N
1506084935.0,286047001.6,N
1506084936.0,286047001.6,N
1506084955.8,286047004.7,N
1506084975.6,286047005.7,N
1506084995.4,286047003.5,N
1506085015.3,286047005.3,N
1506085035.1,286047003.8,N
1506085055.8,286047003.9,N
1506085075.7,286047002.7,N
1506085095.5,286047002.0,N
1506085115.3,286047001.5,N
1506085135.2,286047001.1,N
1506085155.9,286046999.5,N
1506085175.7,286046997.4,N
1506085195.6,286046997.0,N
